Orbital elements:
2011 FX62 = 2005 CC79
Epoch 2011 Aug. 27.0 TT = JDT 2455800.5 MPC
M 7.05456 (2000.0) P Q
n 0.00299695 Peri. 232.60687 -0.90690431 -0.29811650
a 47.6449290 Node 288.29416 +0.41084722 -0.78240468
e 0.5727705 Incl. 18.27591 -0.09342982 -0.54678100
P 329 H 7.4 G 0.15 U 4